Flag for Ecuador Weather past 2 weeks in Guayaquil, Ecuador

Now
81 °F

Passing clouds.


Feels Like: 83 °F
Forecast: 77 / 88 °F
Wind: 8 mph from Southwest

Location: Guayaquil / Simon Bolivar

Current Time: Mar 1, 2015 at 12:23:17 AM

Latest Report: Mar 1, 2015 at 12:00 AM


Visibility: N/A

Pressure: 29.86 "Hg

Humidity: 66%

Dew point: 68 °F

Location of GuayaquilLocation

Historic Weather in Guayaquil — Graph

°F

Guayaquil temperature yesterday

Maximum temperature yesterday: 88 °F (at 3:00 PM)
Minimum temperature yesterday: 75 °F (at 5:00 AM)
Average temperature yesterday: 81 °F

Past Weeks' High & Low Weather Summary

 TemperatureHumidityPressure
High90 °F (Feb 16, 1:00 PM)94% (Feb 24, 11:00 PM)29.92 "Hg (Feb 24, 11:00 PM)
Low73 °F (Feb 24, 11:00 PM)46% (Feb 20, 6:00 PM)29.68 "Hg (Feb 16, 4:00 PM)
Average81 °F72%29.82 "Hg
* Reported Feb 13 11:00 PM — Feb 28 11:00 PM, Guayaquil, Weather by CustomWeather, © 2015

Note: Actual official high and low records may vary slightly from our data, if they occured in-between our weather recording intervals... More about our weather records

Advertising

Guayaquil weather history for previous 24 hours

 ConditionsComfort  
Time TempWeatherWind HumidityBarometerVisibility
11:00 PM
Sat, Feb 28
81 °FPassing clouds.7 mph66%29.89 "HgN/A
10:00 PM81 °FPassing clouds.12 mph66%29.86 "HgN/A
9:00 PM84 °FPassing clouds.9 mph58%29.83 "HgN/A
8:00 PM84 °FPassing clouds.7 mph62%29.80 "HgN/A
7:00 PM84 °FPassing clouds.3 mph62%29.77 "HgN/A
5:00 PM88 °FPartly sunny.5 mph52%29.74 "HgN/A
4:00 PM88 °FScattered clouds.5 mph59%29.77 "HgN/A
3:00 PM88 °FScattered clouds.2 mph59%29.77 "HgN/A
2:00 PM86 °FScattered clouds.2 mph66%29.80 "HgN/A
12:00 PM82 °FBroken clouds.3 mph70%29.89 "HgN/A
11:00 AM81 °FBroken clouds.3 mph70%29.92 "HgN/A
10:00 AM79 °FPartly sunny.1 mph74%29.92 "HgN/A
9:00 AM77 °FPartly sunny.2 mph83%29.92 "HgN/A
8:00 AM75 °FPartly sunny.5 mph83%29.89 "HgN/A
7:00 AM75 °FMostly cloudy.8 mph83%29.86 "HgN/A
6:00 AM75 °FLight rain. Overcast.7 mph89%29.86 "Hg5 mi
5:00 AM75 °FLight rain. Mostly cloudy.3 mph89%29.83 "Hg4 mi
4:00 AM77 °FLight rain. Passing clouds.5 mph79%29.80 "Hg5 mi
3:00 AM79 °FPassing clouds.2 mph79%29.80 "HgN/A
2:00 AM79 °FPassing clouds.6 mph79%29.80 "HgN/A
1:00 AM79 °FPartly cloudy.1 mph74%29.83 "HgN/A
12:00 AM79 °FPassing clouds.3 mph74%29.83 "HgN/A
Weather by CustomWeather, © 2015

See weather overviewHow to use our weather pages